Probability
0 0 0 0 0 0 0 0 0 0 0 0 0 0 0 0 0 0 0 0 0 0 0 0 0 0 0 0 0 0 0 0 0 0 0 0 0 0 0 0 0 0 0
0 0 0 0 0 0 0 0 0 0 0 0 0 0 0 0 0 0 0 0 0 0 0 0 0 0 0 0 0 0 0 0 0 0 0 0 0 0 0 0 0 0 0
0 0 0 0 0 0 0 0 0 0 0 0 0 0 0 0 0 0 0 0 0 0 0 0 0 0 0 0 0 0 0 0 0 0 0 0 0 0 0 0 0 0 0
0 0 0 0 0 0 0 0 0 0 0 0 0 0 0 0 0 0 0 0 0 0 0 0 0 0 0 0 0 0 0 0 0 0 0 0 0 0 0 0 0 0 0
0 0 0 0 0 0 0 0 0 0 0 0 0 0 0 0 0 0 0 0 0 0 0 0 0 0 0 0 0 0 0 0 0 0 0 0 0 0 0 0 0 0 0
0 0 0 0 0 0 0 0 0 0 0 0 0 0 0 0 0 0 0 0 0 0 0 0 0 0 0 0 0 0 0 0 0 0 0 0 0 0 0 0 0 0 0
0 0 0 0 0 0 0 0 0 0 0 0 0 0 0 0 0 0 0 0 0 0 0 0 0 0 0 0 0 0 0 0 0 0 0 0 0 0 0 0 0 0 0
0 0 0 0 0 0 0 0 0 0 0 0 0 0 0 0 0 0 0 0 0 0 0 0 0 0 0 0 0 0 0 0 0 0 0 0 0 0 0 0 0 0 0
0 0 0 0 0 0 0 0 0 0 0 0 0 0 0 0 0 0 0 0 0 0 0 0 0 0 0 0 0 0 0 0 0 0 0 0 0 0 0 0 0 0 0
0 0 0 0 0 0 0 0 0 0 0 0 0 0 0 0 0 0 0 0 0 0 0 0 0 0 0 0 0 0 0 0 0 0 0 0 0 0 0 0 0 0 0
0 0 0 0 0 0 0 0 0 0 0 0 0 0 0 0 0 0 0 0 0 0 0 0 0 0 0 0 0 0 0 0 0 0 0 0 0 0 0 0 0 0 0
0 0 0 0 0 0 0 0 0 0 0 0 0 0 0 0 0 0 0 0 0 0 0 0 0 0 0 0 0 0 0 0 0 0 0 0 0 0 0 0 0 0 0
0 0 0 0 0 0 0 0 0 0 0 0 0 0 0 0 0 0 0 0 0 0 0 0 0 0 0 0 0 0 0 0 0 0 0 0 0 0 0 0 0 0 0
0 0 0 0 0 0 0 0 0 0 0 0 0 0 0 0 0 0 0 0 0 0 0 0 0 0 0 0 0 0 0 0 0 0 0 0 0 0 0 0 0 0 0
0 0 0 0 0 0 0 0 0 0 0 0 0 0 0 0 0 0 0 0 0 0 0 0 0 0 0 0 0 0 0 0 0 0 0 0 0 0 0 0 0 0 0
0 0 0 0 0 0 0 0 0 0 0 0 0 0 0 0 0 0 0 0 0 0 0 0 0 0 0 0 0 0 0 0 0 0 0 0 0 0 0 0 0 0 0
0 0 0 0 0 0 0 0 0 0 0 0 0 0 0 0 0 0 0 0 0 0 0 0 0 0 0 0 0 0 0 0 0 0 0 0 0 0 0 0 0 0 0
0 0 0 0 0 0 0 0 0 0 0 0 0 0 0 0 0 0 0 0 0 0 0 0 0 0 0 0 0 0 0 0 0 0 0 0 0 0 0 0 0 0 0
0 0 0 0 0 0 0 0 0 0 0 0 0 0 0 0 0 0 0 0 0 0 0 0 0 0 0 0 0 0 0 0 0 0 0 0 0 0 0 0 0 0 0
0 0 0 0 0 0 0 0 0 0 0 0 0 0 0 0 0 0 0 0 0 0 0 0 0 0 0 0 0 0 0 0 0 0 0 0 0 0 0 0 0 0 0
0 0 0 0 0 0 0 0 0 0 0 0 0 0 0 0 0 0 0 0 0 0 0 0 0 0 0 0 0 0 0 0 0 0 0 0 0 0 0 0 0 0 0
0 0 0 0 0 0 0 0 0 0 0 0 0 0 0 0 0 0 0 0 0 0 0 0 0 0 0 0 0 0 0 0 0 0 0 0 0 0 0 0 0 0 0
0 0 0 0 0 0 0 0 0 0 0 0 0 0 0 0 0 0 0 0 0 0 0 0 0 0 0 0 0 0 0 0 0 0 0 0 0 0 0 0 0 0 0
0 0 0 0 0 0 0 0 0 0 0 0 0 0 0 0 0 0 0 0 0 0 0 0 0 0 0 0 0 0 0 0 0 0 0 0 0 0 0 0 0 0 0
0 0 0 0 0 0 0 0 0 0 0 0 0 0 0 0 0 0 0 0 0 0 0 0 0 0 0 0 0 0 0 0 0 0 0 0 0 0 0 0 0 0 0
0 0 0 0 0 0 0 0 0 0 0 0 0 0 0 0 0 0 0 0 0 0 0 0 0 0 0 0 0 0 0 0 0 0 0 0 0 0 0 0 0 0 0
Wind_Speed
5 6 12 14 14 14 13 11 10 9 9 10 10 11 10 10 10 9 9 9 10 11 12 12 12 12 12 13 13 13 14 14 14 14 13 11 8 7 9 9 8 6 10
7 7 11 13 15 14 13 12 10 10 10 10 11 11 11 10 10 10 10 10 11 12 12 12 12 12 12 13 13 13 13 14 14 14 14 12 10 7 9 10 10 7 11
7 6 8 11 13 14 13 13 12 12 12 12 12 12 10 9 9 8 8 9 10 10 11 10 10 10 10 11 11 11 12 14 14 14 13 8 8 9 10 11 11 12 12
7 6 6 10 12 13 13 13 13 13 13 13 12 11 10 9 8 8 8 8 9 9 9 9 9 9 9 10 10 11 12 13 14 13 8 7 7 9 10 11 12 13 13
6 5 7 11 12 13 13 13 13 14 13 12 11 10 10 9 9 9 8 8 9 9 9 8 8 8 9 10 10 11 12 13 13 11 7 7 6 10 9 10 11 12 12
6 5 6 10 12 13 13 13 13 13 13 12 11 11 11 10 10 9 9 9 9 9 8 8 9 9 10 10 11 12 12 13 11 7 7 7 6 11 12 12 12 12 12
7 6 6 9 11 12 13 13 13 13 12 12 12 12 11 11 11 10 10 9 9 9 9 9 9 10 10 11 12 12 13 13 8 7 7 7 8 14 15 15 15 15 15
7 6 5 10 10 11 12 13 13 13 13 13 13 12 12 12 11 11 10 10 10 10 10 10 10 10 11 11 12 13 14 12 8 7 6 6 11 12 13 14 14 14 15
5 5 5 5 8 11 12 12 13 13 13 14 13 13 12 12 11 11 11 11 11 11 11 10 10 10 11 11 12 13 13 14 7 5 6 4 10 11 12 12 12 13 13
4 5 6 5 6 6 7 11 12 12 13 13 13 11 10 11 11 10 9 11 12 12 11 11 10 10 11 11 12 12 13 10 6 5 4 5 11 10 11 11 11 11 11
6 6 6 6 6 6 5 7 9 11 12 12 10 12 9 5 5 5 6 11 12 12 12 11 11 10 10 10 11 11 9 4 5 4 4 9 10 10 10 10 10 9 9
14 10 7 8 7 6 5 5 4 5 6 6 5 7 5 4 4 4 7 9 11 11 11 12 11 10 7 4 6 8 3 5 4 3 4 11 10 9 9 9 9 9 9
13 10 10 9 8 8 5 5 3 3 4 5 7 7 6 4 3 3 3 5 5 6 5 7 6 4 4 3 3 3 4 3 2 2 4 10 9 9 8 8 9 9 10
10 12 11 9 9 9 7 6 5 4 4 5 6 7 6 4 4 4 3 3 3 2 3 3 3 4 4 4 4 4 4 3 2 2 3 9 9 8 8 9 9 10 10
13 13 13 12 12 10 8 7 7 7 7 6 6 7 8 6 6 5 4 3 3 3 3 3 4 4 4 3 3 4 4 3 3 3 2 7 9 9 9 10 10 10 10
18 17 15 16 15 12 11 10 9 8 7 7 7 8 9 7 6 6 5 4 3 3 3 3 4 4 3 2 3 4 3 3 3 3 3 4 8 9 9 10 10 10 10
18 16 17 18 16 15 14 13 9 8 8 8 8 9 9 8 8 7 6 5 4 3 4 3 3 3 3 2 3 3 3 3 3 3 3 3 4 8 10 11 11 11 11
16 16 18 16 18 19 17 14 10 9 10 9 8 8 10 10 9 8 6 5 5 4 3 3 3 3 2 2 2 3 3 3 4 3 3 4 3 4 7 13 13 12 12
18 17 17 19 20 20 17 12 10 9 10 8 7 8 9 10 10 8 7 6 6 4 3 3 2 2 2 2 2 3 3 3 3 3 5 5 5 5 4 9 13 13 12
14 15 17 18 18 15 11 7 6 7 8 8 9 10 11 10 11 9 7 7 7 5 4 3 3 2 2 2 2 3 3 3 3 4 4 4 4 5 5 5 5 7 12
11 14 17 18 17 14 13 13 13 14 13 12 11 12 13 12 12 10 8 8 7 7 6 5 4 3 2 2 3 3 3 3 3 3 3 3 4 4 4 5 4 4 5
12 14 15 18 18 18 17 15 8 8 7 8 7 8 11 11 12 11 11 10 9 6 7 6 5 4 2 2 3 3 2 1 1 2 2 2 3 3 4 4 4 4 4
10 12 14 17 18 19 14 8 5 4 3 6 8 10 11 12 13 12 13 11 10 9 9 9 7 7 5 2 1 4 5 4 2 1 1 2 2 2 3 3 4 5 5
10 10 13 14 16 16 15 14 17 15 15 15 11 11 11 13 14 13 13 13 12 10 9 9 7 4 6 4 2 1 2 3 4 1 1 2 2 2 2 2 4 5 4
7 8 10 11 14 15 17 18 18 16 11 6 6 11 11 11 12 13 14 13 12 11 11 10 8 6 4 6 6 4 3 2 2 3 3 2 2 2 3 3 3 4 3
5 4 4 7 10 12 15 16 18 17 12 11 10 13 11 9 10 13 13 13 13 11 12 11 10 9 6 6 5 5 5 5 4 4 4 3 2 3 3 3 4 3 2
Wind_Direction
198 187 186 177 172 168 163 161 158 154 149 143 136 127 119 112 105 100 95 90 86 82 76 70 65 61 56 53 48 41 33 26 22 22 25 28 42 69 68 58 47 34 39
161 177 183 176 175 172 168 166 167 168 163 151 136 122 111 104 98 93 87 85 83 80 75 68 62 57 52 47 43 37 30 25 23 24 25 22 22 67 76 64 51 40 36
147 167 171 171 176 176 174 172 174 174 161 143 126 115 110 106 103 99 91 87 86 84 80 74 68 61 55 50 45 37 31 29 27 28 26 18 13 49 73 62 50 40 33
149 154 155 163 172 175 174 172 169 160 144 132 125 122 122 121 119 117 109 101 97 92 87 82 75 68 61 55 49 43 38 38 36 35 28 19 11 26 60 58 51 42 33
148 147 152 156 164 166 165 163 157 147 140 135 134 138 141 140 137 132 126 117 109 102 95 89 83 77 70 63 57 52 50 49 47 40 28 20 10 19 52 59 55 47 37
154 151 159 160 166 166 163 160 156 152 149 148 153 159 157 152 146 141 134 125 116 110 103 97 91 85 78 70 65 60 58 59 50 40 31 19 6 31 50 54 52 46 39
160 160 169 170 174 176 177 173 169 167 164 162 167 168 163 157 151 146 139 131 124 117 110 103 96 88 81 75 70 64 61 60 56 45 33 16 16 40 45 44 43 40 37
158 162 171 178 180 185 189 187 184 180 174 171 170 167 164 160 156 150 144 137 129 120 110 101 92 85 79 74 70 67 63 61 52 46 33 13 20 36 40 38 35 33 31
164 165 176 180 180 188 192 191 189 183 177 172 170 167 164 161 157 151 146 140 132 122 112 102 92 84 77 72 68 65 63 61 53 42 35 14 27 35 36 35 32 30 28
191 188 183 178 173 179 187 189 184 177 174 172 169 160 156 155 151 148 148 143 135 127 119 111 102 92 83 75 67 62 59 54 44 39 18 19 34 35 35 33 31 30 28
215 211 195 185 178 173 173 180 175 175 175 173 160 150 135 123 126 137 154 144 138 132 125 119 111 100 86 77 71 63 55 41 38 30 6 30 34 34 36 35 33 33 32
209 206 198 190 181 173 172 166 161 162 166 155 145 139 127 125 134 133 136 131 130 130 127 121 112 101 87 65 64 65 53 48 40 25 17 31 31 33 38 39 37 37 37
209 202 199 193 182 176 173 165 161 153 148 147 148 142 139 133 131 112 97 95 89 96 92 105 99 89 89 85 75 66 61 58 47 28 17 33 33 34 40 44 43 43 41
204 206 199 191 187 186 177 174 170 166 163 165 163 157 152 149 147 143 131 131 124 120 125 119 118 110 98 90 85 76 66 60 50 36 29 41 43 43 47 50 50 48 46
213 210 200 192 195 189 184 183 182 183 180 173 168 171 167 165 164 157 152 149 148 146 148 145 136 125 113 97 83 78 68 57 49 45 33 48 55 51 52 53 51 48 48
218 213 201 199 199 191 193 193 191 189 182 175 180 181 176 171 165 162 157 158 162 164 162 155 144 131 117 105 81 71 68 54 43 45 45 51 60 59 56 56 53 50 49
220 210 201 201 197 196 199 197 193 189 184 187 188 183 180 175 170 164 160 164 168 163 156 143 129 114 107 94 73 61 57 48 47 48 52 56 56 56 62 62 57 52 49
217 208 204 198 197 200 201 198 195 190 190 192 186 184 184 179 170 163 165 168 160 157 159 154 140 110 91 79 65 46 43 45 50 56 61 61 60 54 57 67 60 53 46
217 210 201 198 198 200 200 196 192 186 191 190 183 186 186 181 173 169 170 161 155 157 167 165 137 134 123 96 71 57 44 48 50 61 62 60 64 68 61 63 55 46 38
216 208 204 200 200 194 188 180 178 184 192 189 190 192 185 182 176 169 164 160 156 160 173 171 141 118 116 122 89 65 47 47 64 54 52 56 64 72 67 58 44 32 27
211 204 202 199 197 185 187 189 191 199 196 197 197 192 187 180 175 171 167 163 167 175 176 164 146 141 135 155 115 76 42 52 75 47 40 58 59 63 61 49 37 29 12
214 208 205 203 196 193 197 196 193 184 193 196 189 184 183 178 175 177 171 174 174 168 172 182 169 150 142 162 140 120 87 23 39 35 26 59 49 43 39 28 17 11 8
229 214 210 207 200 199 191 172 147 132 116 172 191 191 187 182 180 180 177 174 175 176 185 189 187 165 149 148 152 144 152 197 229 331 6 7 13 27 12 355 352 345 347
237 219 213 207 201 194 182 182 182 191 197 196 191 189 183 184 184 182 177 177 178 181 184 189 189 187 146 148 137 66 100 146 156 205 307 336 349 342 319 308 321 317 327
251 226 214 203 199 192 189 192 193 202 205 175 165 175 180 185 186 183 179 180 182 185 186 183 184 189 169 153 153 149 124 63 86 152 212 288 327 295 267 256 277 288 302
305 271 229 206 202 192 192 194 198 201 188 172 177 182 184 183 187 189 184 186 187 186 186 186 186 186 180 161 160 159 157 156 172 166 180 203 250 285 269 262 259 257 249